Time,TemperatureF,DewpointF,PressureIn,WindDirection,WindDirectionDegrees,WindSpeedMPH,WindSpeedGustMPH,Humidity,HourlyPrecipIn,Conditions,Clouds,dailyrainin,SoftwareType,DateUTC
2013-03-06 00:00:00,33.2,31.9,29.96,NNW,348,1.0,3.0,95,0.00,,,0.00,VWS V14.01,2013-03-06 05:00:00,
2013-03-06 00:05:00,33.4,32.1,29.96,NNW,348,2.0,3.0,95,0.00,,,0.00,VWS V14.01,2013-03-06 05:05:00,
2013-03-06 00:10:00,33.7,32.7,29.96,NNW,348,4.0,4.0,96,0.00,,,0.00,VWS V14.01,2013-03-06 05:10:00,
2013-03-06 00:15:00,33.8,32.5,29.96,NNW,348,0.0,4.0,95,0.00,,,0.00,VWS V14.01,2013-03-06 05:15:00,
2013-03-06 00:20:00,33.8,32.5,29.95,NNW,348,0.0,4.0,95,0.00,,,0.00,VWS V14.01,2013-03-06 05:20:00,
2013-03-06 00:25:00,33.9,32.6,29.95,NNW,348,1.0,4.0,95,0.00,,,0.00,VWS V14.01,2013-03-06 05:25:00,
2013-03-06 00:30:00,33.8,32.5,29.95,NNW,348,1.0,4.0,95,0.00,,,0.00,VWS V14.01,2013-03-06 05:30:00,
2013-03-06 00:35:00,33.8,32.5,29.95,NNW,348,2.0,4.0,95,0.00,,,0.00,VWS V14.01,2013-03-06 05:35:00,
2013-03-06 00:40:00,33.8,32.5,29.95,NNW,348,2.0,4.0,95,0.00,,,0.00,VWS V14.01,2013-03-06 05:40:00,
2013-03-06 00:45:00,33.8,32.5,29.95,NNW,348,0.0,4.0,95,0.00,,,0.00,VWS V14.01,2013-03-06 05:45:00,
2013-03-06 00:50:00,33.7,32.4,29.95,NNW,348,0.0,4.0,95,0.00,,,0.00,VWS V14.01,2013-03-06 05:50:00,
2013-03-06 00:55:00,33.5,32.2,29.95,NNW,348,0.0,4.0,95,0.00,,,0.00,VWS V14.01,2013-03-06 05:55:00,
2013-03-06 01:00:00,33.6,32.3,29.95,NNW,348,0.0,4.0,95,0.00,,,0.00,VWS V14.01,2013-03-06 06:00:00,
2013-03-06 01:05:00,33.7,32.7,29.95,NNW,348,0.0,2.0,96,0.00,,,0.00,VWS V14.01,2013-03-06 06:05:00,
2013-03-06 01:10:00,33.8,32.8,29.95,NNW,348,0.0,2.0,96,0.00,,,0.00,VWS V14.01,2013-03-06 06:10:00,
2013-03-06 01:15:00,34.0,33.0,29.95,NNW,348,0.0,2.0,96,0.00,,,0.00,VWS V14.01,2013-03-06 06:15:00,
2013-03-06 01:20:00,34.1,33.1,29.95,NNW,348,0.0,2.0,96,0.00,,,0.00,VWS V14.01,2013-03-06 06:20:00,
2013-03-06 01:25:00,34.1,33.1,29.96,NNW,348,0.0,2.0,96,0.00,,,0.00,VWS V14.01,2013-03-06 06:25:00,
2013-03-06 01:30:00,34.1,33.1,29.95,NNW,348,0.0,2.0,96,0.00,,,0.00,VWS V14.01,2013-03-06 06:30:00,
2013-03-06 01:35:00,34.1,33.1,29.96,NNW,348,0.0,0.0,96,0.00,,,0.00,VWS V14.01,2013-03-06 06:35:00,
2013-03-06 01:40:00,34.1,33.1,29.95,NNW,348,0.0,0.0,96,0.00,,,0.00,VWS V14.01,2013-03-06 06:40:00,
2013-03-06 01:45:00,34.1,33.1,29.96,NNW,348,0.0,0.0,96,0.00,,,0.00,VWS V14.01,2013-03-06 06:45:00,
2013-03-06 01:50:00,34.0,33.0,29.95,NNW,348,0.0,0.0,96,0.00,,,0.00,VWS V14.01,2013-03-06 06:50:00,
2013-03-06 01:55:00,34.0,33.0,29.95,NNW,348,0.0,0.0,96,0.00,,,0.00,VWS V14.01,2013-03-06 06:55:00,
2013-03-06 02:00:00,34.0,33.0,29.95,NNW,348,0.0,1.0,96,0.00,,,0.00,VWS V14.01,2013-03-06 07:00:00,
2013-03-06 02:05:00,34.1,33.1,29.95,NNW,348,2.0,4.0,96,0.00,,,0.00,VWS V14.01,2013-03-06 07:05:00,
2013-03-06 02:10:00,34.4,33.4,29.95,NNW,348,1.0,4.0,96,0.00,,,0.00,VWS V14.01,2013-03-06 07:10:00,
2013-03-06 02:15:00,34.5,33.5,29.95,NNW,348,0.0,4.0,96,0.00,,,0.00,VWS V14.01,2013-03-06 07:15:00,
2013-03-06 02:20:00,34.6,33.6,29.95,NNW,348,1.0,4.0,96,0.00,,,0.00,VWS V14.01,2013-03-06 07:20:00,
2013-03-06 02:25:00,34.6,33.6,29.95,NNW,348,2.0,4.0,96,0.00,,,0.00,VWS V14.01,2013-03-06 07:25:00,
2013-03-06 02:30:00,34.9,33.9,29.95,NNW,348,0.0,4.0,96,0.00,,,0.00,VWS V14.01,2013-03-06 07:30:00,
2013-03-06 02:35:00,35.0,34.0,29.95,NNW,348,0.0,1.0,96,0.00,,,0.00,VWS V14.01,2013-03-06 07:35:00,
2013-03-06 02:40:00,35.0,34.0,29.95,NNW,348,0.0,1.0,96,0.01,,,0.01,VWS V14.01,2013-03-06 07:40:00,
2013-03-06 02:45:00,35.0,34.0,29.95,NNW,348,1.0,2.0,96,0.01,,,0.01,VWS V14.01,2013-03-06 07:45:00,
2013-03-06 02:50:00,35.2,34.2,29.95,NNW,348,1.0,2.0,96,0.01,,,0.01,VWS V14.01,2013-03-06 07:50:00,
2013-03-06 02:55:00,35.7,34.9,29.95,NNW,348,3.0,3.0,97,0.01,,,0.01,VWS V14.01,2013-03-06 07:55:00,
2013-03-06 03:00:00,36.3,35.5,29.96,NNW,348,1.0,4.0,97,0.01,,,0.01,VWS V14.01,2013-03-06 08:00:00,
2013-03-06 03:05:00,36.6,35.8,29.96,NNW,348,3.0,4.0,97,0.01,,,0.01,VWS V14.01,2013-03-06 08:05:00,
2013-03-06 03:10:00,36.9,36.1,29.96,NNW,348,0.0,6.0,97,0.01,,,0.01,VWS V14.01,2013-03-06 08:10:00,
2013-03-06 03:15:00,37.0,36.2,29.96,NNW,348,2.0,6.0,97,0.01,,,0.01,VWS V14.01,2013-03-06 08:15:00,
2013-03-06 03:20:00,37.1,36.1,29.96,NNW,348,0.0,6.0,96,0.01,,,0.01,VWS V14.01,2013-03-06 08:20:00,
2013-03-06 03:25:00,37.1,36.1,29.96,NNW,348,2.0,6.0,96,0.01,,,0.01,VWS V14.01,2013-03-06 08:25:00,
2013-03-06 03:30:00,37.2,36.2,29.96,NNW,348,1.0,6.0,96,0.01,,,0.01,VWS V14.01,2013-03-06 08:30:00,
2013-03-06 03:35:00,37.3,36.3,29.96,NNW,348,1.0,5.0,96,0.01,,,0.01,VWS V14.01,2013-03-06 08:35:00,
2013-03-06 03:40:00,37.4,36.4,29.96,NNW,348,3.0,5.0,96,0.01,,,0.01,VWS V14.01,2013-03-06 08:40:00,
2013-03-06 03:45:00,37.4,36.1,29.96,NNW,348,0.0,5.0,95,0.01,,,0.01,VWS V14.01,2013-03-06 08:45:00,
2013-03-06 03:50:00,37.4,36.1,29.97,NNW,348,0.0,5.0,95,0.01,,,0.01,VWS V14.01,2013-03-06 08:50:00,
2013-03-06 03:55:00,37.5,36.2,29.96,NNW,348,0.0,5.0,95,0.01,,,0.01,VWS V14.01,2013-03-06 08:55:00,
2013-03-06 04:00:00,37.5,36.2,29.96,NNW,348,0.0,5.0,95,0.01,,,0.01,VWS V14.01,2013-03-06 09:00:00,
2013-03-06 04:05:00,37.5,36.2,29.96,NE,46,0.0,3.0,95,0.00,,,0.01,VWS V14.01,2013-03-06 09:05:00,
2013-03-06 04:10:00,37.7,36.4,29.96,NE,46,0.0,3.0,95,0.00,,,0.01,VWS V14.01,2013-03-06 09:10:00,
2013-03-06 04:15:00,37.8,36.5,29.96,NE,49,2.0,4.0,95,0.00,,,0.01,VWS V14.01,2013-03-06 09:15:00,
2013-03-06 04:20:00,37.8,36.2,29.96,ENE,77,2.0,5.0,94,0.00,,,0.01,VWS V14.01,2013-03-06 09:20:00,
2013-03-06 04:25:00,37.9,36.3,29.96,NE,35,2.0,5.0,94,0.00,,,0.01,VWS V14.01,2013-03-06 09:25:00,
2013-03-06 04:30:00,37.8,36.2,29.96,NE,35,2.0,5.0,94,0.00,,,0.01,VWS V14.01,2013-03-06 09:30:00,
2013-03-06 04:35:00,37.8,36.2,29.96,NNW,346,0.0,4.0,94,0.00,,,0.01,VWS V14.01,2013-03-06 09:35:00,
2013-03-06 04:40:00,37.8,36.2,29.96,NNW,346,1.0,4.0,94,0.00,,,0.01,VWS V14.01,2013-03-06 09:40:00,
2013-03-06 04:45:00,37.7,36.1,29.96,NNW,346,0.0,4.0,94,0.00,,,0.01,VWS V14.01,2013-03-06 09:45:00,
2013-03-06 04:50:00,37.7,36.1,29.96,NE,41,1.0,5.0,94,0.00,,,0.01,VWS V14.01,2013-03-06 09:50:00,
2013-03-06 04:55:00,37.7,36.1,29.96,NNE,18,2.0,7.0,94,0.00,,,0.01,VWS V14.01,2013-03-06 09:55:00,
2013-03-06 05:00:00,37.8,36.2,29.95,NE,40,2.0,9.0,94,0.00,,,0.01,VWS V14.01,2013-03-06 10:00:00,
2013-03-06 05:05:00,37.8,36.2,29.95,NE,54,0.0,6.0,94,0.00,,,0.01,VWS V14.01,2013-03-06 10:05:00,
2013-03-06 05:10:00,37.8,36.2,29.96,ENE,63,7.0,13.0,94,0.00,,,0.01,VWS V14.01,2013-03-06 10:10:00,
2013-03-06 05:15:00,37.8,36.2,29.96,SW,215,3.0,13.0,94,0.00,,,0.01,VWS V14.01,2013-03-06 10:15:00,
2013-03-06 05:20:00,37.8,36.5,29.96,NE,38,3.0,13.0,95,0.00,,,0.01,VWS V14.01,2013-03-06 10:20:00,
2013-03-06 05:25:00,37.7,36.4,29.95,East,84,2.0,13.0,95,0.00,,,0.01,VWS V14.01,2013-03-06 10:25:00,
2013-03-06 05:30:00,37.7,36.4,29.95,ENE,75,5.0,13.0,95,0.00,,,0.01,VWS V14.01,2013-03-06 10:30:00,
2013-03-06 05:35:00,37.7,36.4,29.95,NNE,19,3.0,7.0,95,0.00,,,0.01,VWS V14.01,2013-03-06 10:35:00,
2013-03-06 05:40:00,37.8,36.5,29.95,ENE,69,5.0,9.0,95,0.00,,,0.01,VWS V14.01,2013-03-06 10:40:00,
2013-03-06 05:45:00,37.8,36.5,29.95,NE,43,5.0,9.0,95,0.00,,,0.01,VWS V14.01,2013-03-06 10:45:00,
2013-03-06 05:50:00,37.8,36.5,29.95,ENE,60,4.0,9.0,95,0.00,,,0.01,VWS V14.01,2013-03-06 10:50:00,
2013-03-06 05:55:00,37.8,36.2,29.95,North,5,5.0,10.0,94,0.00,,,0.01,VWS V14.01,2013-03-06 10:55:00,
2013-03-06 06:00:00,37.8,36.2,29.95,NNE,32,4.0,10.0,94,0.00,,,0.01,VWS V14.01,2013-03-06 11:00:00,
2013-03-06 06:05:00,37.8,36.2,29.95,ENE,57,3.0,13.0,94,0.00,,,0.01,VWS V14.01,2013-03-06 11:05:00,
2013-03-06 06:10:00,37.9,36.1,29.95,East,80,3.0,13.0,93,0.00,,,0.01,VWS V14.01,2013-03-06 11:10:00,
2013-03-06 06:15:00,38.0,36.2,29.95,East,82,6.0,13.0,93,0.00,,,0.01,VWS V14.01,2013-03-06 11:15:00,
2013-03-06 06:20:00,38.1,36.3,29.96,NE,40,3.0,13.0,93,0.00,,,0.01,VWS V14.01,2013-03-06 11:20:00,
2013-03-06 06:25:00,38.2,36.4,29.96,ENE,78,4.0,13.0,93,0.00,,,0.01,VWS V14.01,2013-03-06 11:25:00,
2013-03-06 06:30:00,38.2,36.1,29.96,NNE,23,7.0,13.0,92,0.00,,,0.01,VWS V14.01,2013-03-06 11:30:00,
2013-03-06 06:35:00,38.2,36.1,29.96,NE,55,7.0,11.0,92,0.00,,,0.01,VWS V14.01,2013-03-06 11:35:00,
2013-03-06 06:40:00,38.2,36.1,29.97,ESE,103,8.0,16.0,92,0.00,,,0.01,VWS V14.01,2013-03-06 11:40:00,
2013-03-06 06:45:00,38.2,36.1,29.97,East,86,11.0,16.0,92,0.00,,,0.01,VWS V14.01,2013-03-06 11:45:00,
2013-03-06 06:50:00,38.2,36.1,29.97,ENE,76,7.0,16.0,92,0.00,,,0.01,VWS V14.01,2013-03-06 11:50:00,
2013-03-06 06:55:00,38.4,36.0,29.97,East,82,8.0,16.0,91,0.00,,,0.01,VWS V14.01,2013-03-06 11:55:00,
2013-03-06 07:00:00,38.4,36.3,29.97,NE,49,5.0,16.0,92,0.00,,,0.01,VWS V14.01,2013-03-06 12:00:00,
2013-03-06 07:05:00,38.3,36.2,29.97,East,83,8.0,10.0,92,0.00,,,0.01,VWS V14.01,2013-03-06 12:05:00,
2013-03-06 07:10:00,38.2,36.1,29.97,ENE,77,3.0,10.0,92,0.01,,,0.02,VWS V14.01,2013-03-06 12:10:00,
2013-03-06 07:15:00,38.1,36.3,29.98,East,87,8.0,12.0,93,0.01,,,0.02,VWS V14.01,2013-03-06 12:15:00,
2013-03-06 07:20:00,38.1,36.3,29.97,East,86,8.0,12.0,93,0.01,,,0.02,VWS V14.01,2013-03-06 12:20:00,
2013-03-06 07:25:00,38.1,36.5,29.97,East,93,8.0,12.0,94,0.01,,,0.02,VWS V14.01,2013-03-06 12:25:00,
2013-03-06 07:30:00,38.1,36.5,29.97,ENE,74,9.0,13.0,94,0.01,,,0.02,VWS V14.01,2013-03-06 12:30:00,
2013-03-06 07:35:00,37.9,36.1,29.96,NE,35,6.0,15.0,93,0.02,,,0.03,VWS V14.01,2013-03-06 12:35:00,
2013-03-06 07:40:00,37.9,36.1,29.96,ENE,78,7.0,15.0,93,0.02,,,0.03,VWS V14.01,2013-03-06 12:40:00,
2013-03-06 07:45:00,37.8,36.0,29.96,East,86,8.0,15.0,93,0.02,,,0.03,VWS V14.01,2013-03-06 12:45:00,
2013-03-06 07:50:00,37.9,36.3,29.96,NE,50,6.0,16.0,94,0.02,,,0.03,VWS V14.01,2013-03-06 12:50:00,
2013-03-06 07:55:00,38.0,36.4,29.96,East,80,3.0,16.0,94,0.02,,,0.03,VWS V14.01,2013-03-06 12:55:00,
2013-03-06 08:00:00,38.1,36.3,29.96,NE,43,5.0,18.0,93,0.02,,,0.03,VWS V14.01,2013-03-06 13:00:00,
2013-03-06 08:05:00,38.2,36.4,29.96,East,86,8.0,16.0,93,0.02,,,0.03,VWS V14.01,2013-03-06 13:05:00,
2013-03-06 08:10:00,38.4,36.6,29.96,East,79,3.0,16.0,93,0.02,,,0.03,VWS V14.01,2013-03-06 13:10:00,
2013-03-06 08:15:00,38.4,36.3,29.96,ENE,68,5.0,16.0,92,0.02,,,0.03,VWS V14.01,2013-03-06 13:15:00,
2013-03-06 08:20:00,38.5,36.1,29.96,ENE,75,3.0,16.0,91,0.02,,,0.03,VWS V14.01,2013-03-06 13:20:00,
2013-03-06 08:25:00,38.6,35.9,29.96,SE,142,9.0,19.0,90,0.02,,,0.03,VWS V14.01,2013-03-06 13:25:00,
2013-03-06 08:30:00,38.7,35.7,29.97,ENE,67,8.0,19.0,89,0.02,,,0.03,VWS V14.01,2013-03-06 13:30:00,
2013-03-06 08:35:00,38.7,35.5,29.97,East,88,6.0,25.0,88,0.01,,,0.03,VWS V14.01,2013-03-06 13:35:00,
2013-03-06 08:41:00,38.8,35.6,29.97,East,82,5.0,25.0,88,0.01,,,0.03,VWS V14.01,2013-03-06 13:41:00,
2013-03-06 08:46:00,38.8,35.6,29.97,NE,40,4.0,25.0,88,0.01,,,0.03,VWS V14.01,2013-03-06 13:46:00,
2013-03-06 08:51:00,38.8,35.6,29.98,North,5,4.0,25.0,88,0.01,,,0.03,VWS V14.01,2013-03-06 13:51:00,
2013-03-06 08:56:00,38.8,35.8,29.98,NE,53,5.0,25.0,89,0.01,,,0.03,VWS V14.01,2013-03-06 13:56:00,
2013-03-06 09:00:00,38.9,34.8,29.97,SE,131,6.0,19.0,85,0.00,,,0.03,VWS V14.01,2013-03-06 14:00:00,
2013-03-06 09:01:00,38.9,35.7,29.98,East,84,6.0,25.0,88,0.01,,,0.03,VWS V14.01,2013-03-06 14:01:00,
2013-03-06 09:06:00,39.0,35.5,29.98,NE,47,11.0,18.0,87,0.00,,,0.03,VWS V14.01,2013-03-06 14:06:00,
2013-03-06 09:11:00,39.3,35.8,29.98,East,85,14.0,18.0,87,0.00,,,0.03,VWS V14.01,2013-03-06 14:11:00,
2013-03-06 09:16:00,39.5,35.7,29.98,ENE,70,8.0,18.0,86,0.00,,,0.03,VWS V14.01,2013-03-06 14:16:00,
2013-03-06 09:21:00,39.8,36.0,29.99,East,82,7.0,18.0,86,0.00,,,0.03,VWS V14.01,2013-03-06 14:21:00,
2013-03-06 09:26:00,39.2,34.8,30.00,ENE,69,15.0,22.0,84,0.00,,,0.03,VWS V14.01,2013-03-06 14:26:00,
2013-03-06 09:30:00,39.3,35.2,29.97,NE,40,3.0,21.0,85,0.00,,,0.03,VWS V14.01,2013-03-06 14:30:00,
2013-03-06 09:31:00,38.5,34.4,29.99,East,98,9.0,22.0,85,0.00,,,0.03,VWS V14.01,2013-03-06 14:31:00,
2013-03-06 09:36:00,38.9,35.1,29.99,ENE,77,3.0,11.0,86,0.00,,,0.03,VWS V14.01,2013-03-06 14:36:00,
2013-03-06 09:41:00,39.1,34.7,29.99,East,89,2.0,19.0,84,0.00,,,0.03,VWS V14.01,2013-03-06 14:41:00,
2013-03-06 09:46:00,39.1,34.7,29.99,ENE,62,5.0,19.0,84,0.00,,,0.03,VWS V14.01,2013-03-06 14:46:00,
2013-03-06 09:51:00,38.9,34.5,29.99,ENE,78,9.0,19.0,84,0.00,,,0.03,VWS V14.01,2013-03-06 14:51:00,
2013-03-06 09:56:00,38.9,35.1,29.99,East,89,6.0,19.0,86,0.00,,,0.03,VWS V14.01,2013-03-06 14:56:00,
2013-03-06 10:00:00,39.6,35.2,29.96,East,88,6.0,19.0,84,0.00,,,0.03,VWS V14.01,2013-03-06 15:00:00,
2013-03-06 10:01:00,38.9,34.8,29.98,East,84,7.0,19.0,85,0.00,,,0.03,VWS V14.01,2013-03-06 15:01:00,
2013-03-06 10:06:00,38.8,34.4,29.97,East,99,10.0,21.0,84,0.00,,,0.03,VWS V14.01,2013-03-06 15:06:00,
2013-03-06 10:11:00,38.9,34.8,29.97,ENE,67,10.0,21.0,85,0.00,,,0.03,VWS V14.01,2013-03-06 15:11:00,
2013-03-06 10:16:00,39.2,34.8,29.97,East,89,8.0,21.0,84,0.00,,,0.03,VWS V14.01,2013-03-06 15:16:00,
2013-03-06 10:21:00,39.5,34.5,29.97,ESE,105,8.0,21.0,82,0.00,,,0.03,VWS V14.01,2013-03-06 15:21:00,
2013-03-06 10:26:00,39.5,35.1,29.97,East,81,13.0,21.0,84,0.00,,,0.03,VWS V14.01,2013-03-06 15:26:00,
2013-03-06 10:30:00,40.2,35.8,29.97,NNE,21,8.0,23.0,84,0.00,,,0.03,VWS V14.01,2013-03-06 15:30:00,
2013-03-06 10:31:00,39.3,35.2,29.97,NE,52,4.0,21.0,85,0.00,,,0.03,VWS V14.01,2013-03-06 15:31:00,
2013-03-06 10:36:00,39.6,35.5,29.97,ENE,60,7.0,12.0,85,0.00,,,0.03,VWS V14.01,2013-03-06 15:36:00,
2013-03-06 10:41:00,39.7,35.3,29.97,NE,40,5.0,17.0,84,0.00,,,0.03,VWS V14.01,2013-03-06 15:41:00,
2013-03-06 10:46:00,39.4,35.6,29.97,ENE,73,11.0,18.0,86,0.00,,,0.03,VWS V14.01,2013-03-06 15:46:00,
2013-03-06 10:51:00,39.3,35.8,29.97,NE,44,4.0,18.0,87,0.00,,,0.03,VWS V14.01,2013-03-06 15:51:00,
2013-03-06 10:56:00,39.4,35.6,29.97,NNE,15,9.0,18.0,86,0.00,,,0.03,VWS V14.01,2013-03-06 15:56:00,
2013-03-06 11:00:00,40.4,35.7,29.97,ENE,68,9.0,19.0,83,0.00,,,0.03,VWS V14.01,2013-03-06 16:00:00,
2013-03-06 11:01:00,39.5,35.1,29.97,ENE,77,7.0,19.0,84,0.00,,,0.03,VWS V14.01,2013-03-06 16:01:00,
2013-03-06 11:06:00,39.8,35.7,29.97,East,95,7.0,14.0,85,0.00,,,0.03,VWS V14.01,2013-03-06 16:06:00,
2013-03-06 11:11:00,39.9,35.8,29.96,East,88,8.0,22.0,85,0.00,,,0.03,VWS V14.01,2013-03-06 16:11:00,
2013-03-06 11:16:00,40.5,36.0,29.96,East,96,8.0,22.0,84,0.00,,,0.03,VWS V14.01,2013-03-06 16:16:00,
2013-03-06 11:21:00,40.6,35.8,29.96,East,90,11.0,23.0,83,0.00,,,0.03,VWS V14.01,2013-03-06 16:21:00,
2013-03-06 11:26:00,40.4,35.3,29.97,East,89,7.0,23.0,82,0.00,,,0.03,VWS V14.01,2013-03-06 16:26:00,
2013-03-06 11:30:00,38.8,35.6,29.96,ENE,78,5.0,25.0,88,0.01,,,0.04,VWS V14.01,2013-03-06 16:30:00,
2013-03-06 11:31:00,40.3,35.6,29.97,NE,44,7.0,23.0,83,0.00,,,0.03,VWS V14.01,2013-03-06 16:31:00,
2013-03-06 11:36:00,40.5,36.3,29.97,NW,324,6.0,13.0,85,0.00,,,0.03,VWS V14.01,2013-03-06 16:36:00,
2013-03-06 11:41:00,41.0,36.2,29.96,ENE,61,12.0,18.0,83,0.00,,,0.03,VWS V14.01,2013-03-06 16:41:00,
2013-03-06 11:46:00,40.6,36.2,29.97,NNE,20,5.0,18.0,84,0.00,,,0.03,VWS V14.01,2013-03-06 16:46:00,
2013-03-06 11:51:00,40.8,36.3,29.97,ESE,110,7.0,18.0,84,0.00,,,0.03,VWS V14.01,2013-03-06 16:51:00,
2013-03-06 11:56:00,41.1,36.0,29.97,East,90,7.0,19.0,82,0.00,,,0.03,VWS V14.01,2013-03-06 16:56:00,
2013-03-06 12:00:00,39.5,36.8,29.94,East,96,10.0,19.0,90,0.01,,,0.04,VWS V14.01,2013-03-06 17:00:00,
2013-03-06 12:01:00,40.5,35.8,29.96,NNE,22,5.0,19.0,83,0.00,,,0.03,VWS V14.01,2013-03-06 17:01:00,
2013-03-06 12:06:00,40.1,35.7,29.96,East,94,9.0,18.0,84,0.00,,,0.03,VWS V14.01,2013-03-06 17:06:00,
2013-03-06 12:11:00,39.3,35.5,29.96,East,80,8.0,25.0,86,0.00,,,0.03,VWS V14.01,2013-03-06 17:11:00,
2013-03-06 12:16:00,39.2,36.0,29.96,ENE,76,3.0,25.0,88,0.00,,,0.03,VWS V14.01,2013-03-06 17:16:00,
2013-03-06 12:21:00,39.2,36.2,29.96,ENE,71,5.0,25.0,89,0.00,,,0.03,VWS V14.01,2013-03-06 17:21:00,
2013-03-06 12:26:00,39.3,36.3,29.96,East,84,10.0,25.0,89,0.00,,,0.03,VWS V14.01,2013-03-06 17:26:00,
2013-03-06 12:30:00,40.4,36.3,29.93,NNW,347,9.0,23.0,85,0.01,,,0.04,VWS V14.01,2013-03-06 17:30:00,
2013-03-06 12:31:00,38.8,35.6,29.96,ENE,72,5.0,25.0,88,0.01,,,0.04,VWS V14.01,2013-03-06 17:31:00,
2013-03-06 12:36:00,38.8,36.1,29.95,NE,40,9.0,16.0,90,0.01,,,0.04,VWS V14.01,2013-03-06 17:36:00,
2013-03-06 12:41:00,39.1,36.7,29.95,NE,34,9.0,17.0,91,0.01,,,0.04,VWS V14.01,2013-03-06 17:41:00,
2013-03-06 12:46:00,39.2,36.8,29.95,ESE,111,10.0,18.0,91,0.01,,,0.04,VWS V14.01,2013-03-06 17:46:00,
2013-03-06 12:51:00,39.4,37.0,29.95,East,85,5.0,19.0,91,0.01,,,0.04,VWS V14.01,2013-03-06 17:51:00,
2013-03-06 12:56:00,39.6,37.2,29.95,ENE,67,10.0,19.0,91,0.01,,,0.04,VWS V14.01,2013-03-06 17:56:00,
2013-03-06 13:00:00,39.4,35.3,29.93,East,80,15.0,21.0,85,0.00,,,0.04,VWS V14.01,2013-03-06 18:00:00,
2013-03-06 13:01:00,39.6,36.9,29.94,ESE,105,5.0,19.0,90,0.01,,,0.04,VWS V14.01,2013-03-06 18:01:00,
2013-03-06 13:06:00,39.6,36.9,29.94,ENE,67,11.0,18.0,90,0.01,,,0.04,VWS V14.01,2013-03-06 18:06:00,
2013-03-06 13:11:00,40.2,37.5,29.94,SE,136,4.0,18.0,90,0.01,,,0.04,VWS V14.01,2013-03-06 18:11:00,
2013-03-06 13:16:00,40.5,37.2,29.94,NE,52,9.0,23.0,88,0.01,,,0.04,VWS V14.01,2013-03-06 18:16:00,
2013-03-06 13:22:00,40.1,36.5,29.93,East,80,11.0,23.0,87,0.01,,,0.04,VWS V14.01,2013-03-06 18:22:00,
2013-03-06 13:27:00,40.3,36.8,29.93,East,87,9.0,23.0,87,0.01,,,0.04,VWS V14.01,2013-03-06 18:27:00,
2013-03-06 13:30:00,39.6,34.9,29.93,ENE,78,3.0,23.0,83,0.00,,,0.04,VWS V14.01,2013-03-06 18:30:00,
2013-03-06 13:32:00,40.4,36.3,29.93,SE,125,11.0,23.0,85,0.01,,,0.04,VWS V14.01,2013-03-06 18:32:00,
2013-03-06 13:37:00,40.3,36.2,29.93,ENE,62,7.0,21.0,85,0.00,,,0.04,VWS V14.01,2013-03-06 18:37:00,
2013-03-06 13:42:00,40.2,36.1,29.93,East,95,8.0,21.0,85,0.00,,,0.04,VWS V14.01,2013-03-06 18:42:00,
2013-03-06 13:47:00,40.2,36.1,29.93,East,83,5.0,21.0,85,0.00,,,0.04,VWS V14.01,2013-03-06 18:47:00,
2013-03-06 13:52:00,40.4,36.0,29.93,East,86,6.0,21.0,84,0.00,,,0.04,VWS V14.01,2013-03-06 18:52:00,
2013-03-06 13:57:00,40.2,35.8,29.93,ENE,70,11.0,21.0,84,0.00,,,0.04,VWS V14.01,2013-03-06 18:57:00,
2013-03-06 14:00:00,39.3,34.3,29.93,NNE,18,11.0,22.0,82,0.00,,,0.04,VWS V14.01,2013-03-06 19:00:00,
2013-03-06 14:02:00,39.4,35.3,29.93,East,80,15.0,21.0,85,0.00,,,0.04,VWS V14.01,2013-03-06 19:02:00,
2013-03-06 14:07:00,39.0,35.5,29.93,ENE,74,2.0,16.0,87,0.00,,,0.04,VWS V14.01,2013-03-06 19:07:00,
2013-03-06 14:12:00,39.2,35.4,29.93,NE,43,7.0,18.0,86,0.00,,,0.04,VWS V14.01,2013-03-06 19:12:00,
2013-03-06 14:17:00,39.5,35.1,29.93,NE,44,4.0,18.0,84,0.00,,,0.04,VWS V14.01,2013-03-06 19:17:00,
2013-03-06 14:22:00,39.6,34.9,29.93,NE,36,8.0,21.0,83,0.00,,,0.04,VWS V14.01,2013-03-06 19:22:00,
2013-03-06 14:27:00,39.6,34.9,29.93,NNE,22,7.0,23.0,83,0.00,,,0.04,VWS V14.01,2013-03-06 19:27:00,
2013-03-06 14:30:00,38.7,34.9,29.91,North,360,8.0,23.0,86,0.00,,,0.04,VWS V14.01,2013-03-06 19:30:00,
2013-03-06 14:32:00,39.6,34.9,29.93,NNE,33,4.0,6.0,83,0.00,,,0.04,VWS V14.01,2013-03-06 19:32:00,
2013-03-06 14:37:00,39.4,35.0,29.93,NE,54,6.0,17.0,84,0.00,,,0.04,VWS V14.01,2013-03-06 19:37:00,
2013-03-06 14:42:00,39.2,34.8,29.93,ENE,73,8.0,22.0,84,0.00,,,0.04,VWS V14.01,2013-03-06 19:42:00,
2013-03-06 14:47:00,39.3,34.9,29.93,NNE,32,8.0,22.0,84,0.00,,,0.04,VWS V14.01,2013-03-06 19:47:00,
2013-03-06 14:52:00,39.3,34.9,29.93,East,92,7.0,22.0,84,0.00,,,0.04,VWS V14.01,2013-03-06 19:52:00,
2013-03-06 14:57:00,39.3,34.6,29.93,ENE,76,7.0,22.0,83,0.00,,,0.04,VWS V14.01,2013-03-06 19:57:00,
2013-03-06 15:00:00,38.0,35.0,29.93,ENE,59,5.0,20.0,89,0.00,,,0.04,VWS V14.01,2013-03-06 20:00:00,
2013-03-06 15:02:00,39.3,34.3,29.93,NNE,18,11.0,22.0,82,0.00,,,0.04,VWS V14.01,2013-03-06 20:02:00,
2013-03-06 15:07:00,39.4,34.4,29.93,ESE,112,4.0,14.0,82,0.00,,,0.04,VWS V14.01,2013-03-06 20:07:00,
2013-03-06 15:12:00,39.4,34.4,29.93,SE,131,5.0,16.0,82,0.00,,,0.04,VWS V14.01,2013-03-06 20:12:00,
2013-03-06 15:17:00,39.4,34.4,29.92,East,84,2.0,17.0,82,0.00,,,0.04,VWS V14.01,2013-03-06 20:17:00,
2013-03-06 15:22:00,39.1,34.4,29.92,NNE,29,11.0,23.0,83,0.00,,,0.04,VWS V14.01,2013-03-06 20:22:00,
2013-03-06 15:27:00,38.9,34.8,29.92,ENE,66,5.0,23.0,85,0.00,,,0.04,VWS V14.01,2013-03-06 20:27:00,
2013-03-06 15:30:00,37.9,35.0,29.94,East,84,9.0,23.0,89,0.00,,,0.04,VWS V14.01,2013-03-06 20:30:00,
2013-03-06 15:32:00,38.6,34.8,29.91,ENE,68,10.0,11.0,86,0.00,,,0.04,VWS V14.01,2013-03-06 20:32:00,
2013-03-06 15:37:00,38.2,35.0,29.92,ENE,74,5.0,20.0,88,0.00,,,0.04,VWS V14.01,2013-03-06 20:37:00,
2013-03-06 15:42:00,38.0,35.0,29.92,ENE,63,5.0,20.0,89,0.00,,,0.04,VWS V14.01,2013-03-06 20:42:00,
2013-03-06 15:47:00,37.9,35.2,29.93,North,9,14.0,20.0,90,0.00,,,0.04,VWS V14.01,2013-03-06 20:47:00,
2013-03-06 15:52:00,37.9,35.2,29.93,NE,42,11.0,20.0,90,0.00,,,0.04,VWS V14.01,2013-03-06 20:52:00,
2013-03-06 15:57:00,38.0,35.0,29.93,ENE,74,12.0,20.0,89,0.00,,,0.04,VWS V14.01,2013-03-06 20:57:00,
2013-03-06 16:00:00,37.4,35.3,29.92,East,79,6.0,22.0,92,0.01,,,0.05,VWS V14.01,2013-03-06 21:00:00,
2013-03-06 16:02:00,38.0,35.0,29.93,NE,49,10.0,13.0,89,0.00,,,0.04,VWS V14.01,2013-03-06 21:02:00,
2013-03-06 16:07:00,38.0,35.0,29.93,West,281,7.0,15.0,89,0.00,,,0.04,VWS V14.01,2013-03-06 21:07:00,
2013-03-06 16:12:00,38.1,35.2,29.93,NE,47,8.0,15.0,89,0.00,,,0.04,VWS V14.01,2013-03-06 21:12:00,
2013-03-06 16:17:00,38.0,35.0,29.93,ENE,65,15.0,15.0,89,0.00,,,0.04,VWS V14.01,2013-03-06 21:17:00,
2013-03-06 16:22:00,37.9,35.0,29.93,NE,49,12.0,23.0,89,0.00,,,0.04,VWS V14.01,2013-03-06 21:22:00,
2013-03-06 16:27:00,37.9,35.0,29.93,East,94,6.0,23.0,89,0.00,,,0.04,VWS V14.01,2013-03-06 21:27:00,
2013-03-06 16:30:00,37.3,35.2,29.92,East,101,9.0,18.0,92,0.01,,,0.05,VWS V14.01,2013-03-06 21:30:00,
2013-03-06 16:32:00,37.9,35.0,29.94,ENE,59,12.0,12.0,89,0.00,,,0.04,VWS V14.01,2013-03-06 21:32:00,
2013-03-06 16:37:00,37.8,35.1,29.93,ENE,71,4.0,22.0,90,0.00,,,0.04,VWS V14.01,2013-03-06 21:37:00,
2013-03-06 16:42:00,37.8,35.1,29.93,ENE,68,8.0,22.0,90,0.00,,,0.04,VWS V14.01,2013-03-06 21:42:00,
2013-03-06 16:47:00,37.7,35.3,29.93,NE,44,9.0,22.0,91,0.00,,,0.04,VWS V14.01,2013-03-06 21:47:00,
2013-03-06 16:52:00,37.6,35.2,29.92,ENE,65,5.0,22.0,91,0.00,,,0.04,VWS V14.01,2013-03-06 21:52:00,
2013-03-06 16:57:00,37.5,35.4,29.92,NNE,26,12.0,22.0,92,0.01,,,0.05,VWS V14.01,2013-03-06 21:57:00,
2013-03-06 17:00:00,37.5,35.4,29.92,ENE,65,5.0,20.0,92,0.01,,,0.05,VWS V14.01,2013-03-06 22:00:00,
2013-03-06 17:02:00,37.4,35.3,29.92,NE,42,4.0,8.0,92,0.01,,,0.05,VWS V14.01,2013-03-06 22:02:00,
2013-03-06 17:07:00,37.3,35.2,29.91,ENE,71,5.0,18.0,92,0.01,,,0.05,VWS V14.01,2013-03-06 22:07:00,
2013-03-06 17:12:00,37.3,35.2,29.91,ENE,57,4.0,18.0,92,0.01,,,0.05,VWS V14.01,2013-03-06 22:12:00,
2013-03-06 17:18:00,37.3,35.2,29.91,NNE,15,15.0,18.0,92,0.01,,,0.05,VWS V14.01,2013-03-06 22:18:00,
2013-03-06 17:23:00,37.3,35.2,29.90,NE,53,6.0,18.0,92,0.01,,,0.05,VWS V14.01,2013-03-06 22:23:00,
2013-03-06 17:27:00,37.3,35.2,29.91,NNE,27,11.0,18.0,92,0.01,,,0.05,VWS V14.01,2013-03-06 22:27:00,
2013-03-06 17:30:00,37.3,35.2,29.91,NE,55,4.0,23.0,92,0.01,,,0.06,VWS V14.01,2013-03-06 22:30:00,
2013-03-06 17:32:00,37.3,35.2,29.92,ESE,111,9.0,16.0,92,0.01,,,0.05,VWS V14.01,2013-03-06 22:32:00,
2013-03-06 17:37:00,37.2,35.1,29.92,East,95,6.0,17.0,92,0.01,,,0.05,VWS V14.01,2013-03-06 22:37:00,
2013-03-06 17:42:00,37.2,35.1,29.93,ENE,76,5.0,19.0,92,0.01,,,0.05,VWS V14.01,2013-03-06 22:42:00,
2013-03-06 17:47:00,37.2,35.1,29.92,North,355,3.0,20.0,92,0.01,,,0.05,VWS V14.01,2013-03-06 22:47:00,
2013-03-06 17:52:00,37.3,35.2,29.92,NE,40,3.0,20.0,92,0.01,,,0.05,VWS V14.01,2013-03-06 22:52:00,
2013-03-06 17:57:00,37.4,35.3,29.92,NNE,21,7.0,20.0,92,0.01,,,0.05,VWS V14.01,2013-03-06 22:57:00,
2013-03-06 18:00:00,37.5,35.4,29.91,NNE,24,4.0,20.0,92,0.01,,,0.06,VWS V14.01,2013-03-06 23:00:00,
2013-03-06 18:02:00,37.5,35.4,29.92,ENE,65,14.0,17.0,92,0.00,,,0.05,VWS V14.01,2013-03-06 23:02:00,
2013-03-06 18:07:00,37.6,35.2,29.92,East,80,10.0,18.0,91,0.00,,,0.05,VWS V14.01,2013-03-06 23:07:00,
2013-03-06 18:12:00,37.6,35.2,29.92,NE,35,16.0,22.0,91,0.00,,,0.05,VWS V14.01,2013-03-06 23:12:00,
2013-03-06 18:17:00,37.6,35.2,29.92,North,10,10.0,22.0,91,0.00,,,0.05,VWS V14.01,2013-03-06 23:17:00,
2013-03-06 18:22:00,37.5,35.1,29.91,NNE,28,6.0,22.0,91,0.00,,,0.05,VWS V14.01,2013-03-06 23:22:00,
2013-03-06 18:27:00,37.4,35.0,29.92,NNE,28,9.0,23.0,91,0.01,,,0.06,VWS V14.01,2013-03-06 23:27:00,
2013-03-06 18:30:00,37.9,35.2,29.91,NNE,30,13.0,22.0,90,0.01,,,0.06,VWS V14.01,2013-03-06 23:30:00,
2013-03-06 18:32:00,37.3,35.2,29.91,NNE,32,4.0,5.0,92,0.01,,,0.06,VWS V14.01,2013-03-06 23:32:00,
2013-03-06 18:37:00,37.3,35.2,29.91,NNE,27,8.0,16.0,92,0.01,,,0.06,VWS V14.01,2013-03-06 23:37:00,
2013-03-06 18:42:00,37.2,35.4,29.91,East,98,2.0,18.0,93,0.01,,,0.06,VWS V14.01,2013-03-06 23:42:00,
2013-03-06 18:47:00,37.2,35.4,29.91,East,80,5.0,18.0,93,0.01,,,0.06,VWS V14.01,2013-03-06 23:47:00,
2013-03-06 18:52:00,37.3,35.5,29.91,ENE,59,5.0,18.0,93,0.01,,,0.06,VWS V14.01,2013-03-06 23:52:00,
2013-03-06 18:57:00,37.4,35.6,29.91,ENE,59,5.0,18.0,93,0.01,,,0.06,VWS V14.01,2013-03-06 23:57:00,
2013-03-06 19:00:00,37.6,35.2,29.91,North,360,17.0,28.0,91,0.00,,,0.06,VWS V14.01,2013-03-07 00:00:00,
2013-03-06 19:02:00,37.5,35.4,29.91,East,80,8.0,8.0,92,0.01,,,0.06,VWS V14.01,2013-03-07 00:02:00,
2013-03-06 19:07:00,37.6,35.5,29.90,ENE,73,8.0,18.0,92,0.01,,,0.06,VWS V14.01,2013-03-07 00:07:00,
2013-03-06 19:12:00,37.7,35.3,29.90,ESE,118,4.0,20.0,91,0.01,,,0.06,VWS V14.01,2013-03-07 00:12:00,
2013-03-06 19:17:00,37.8,35.4,29.91,SSE,162,2.0,20.0,91,0.01,,,0.06,VWS V14.01,2013-03-07 00:17:00,
2013-03-06 19:22:00,37.9,35.2,29.90,North,355,6.0,22.0,90,0.01,,,0.06,VWS V14.01,2013-03-07 00:22:00,
2013-03-06 19:27:00,37.9,35.2,29.90,East,99,10.0,22.0,90,0.01,,,0.06,VWS V14.01,2013-03-07 00:27:00,
2013-03-06 19:30:00,37.6,34.9,29.88,NNE,23,5.0,26.0,90,0.00,,,0.06,VWS V14.01,2013-03-07 00:30:00,
2013-03-06 19:32:00,37.9,35.2,29.90,ENE,69,4.0,10.0,90,0.00,,,0.06,VWS V14.01,2013-03-07 00:32:00,
2013-03-06 19:37:00,37.8,35.1,29.90,NNW,346,8.0,18.0,90,0.00,,,0.06,VWS V14.01,2013-03-07 00:37:00,
2013-03-06 19:42:00,37.6,34.9,29.89,NNW,345,7.0,28.0,90,0.00,,,0.06,VWS V14.01,2013-03-07 00:42:00,
2013-03-06 19:47:00,37.6,34.9,29.90,ENE,70,4.0,28.0,90,0.00,,,0.06,VWS V14.01,2013-03-07 00:47:00,
2013-03-06 19:52:00,37.5,35.1,29.90,NNE,15,7.0,28.0,91,0.00,,,0.06,VWS V14.01,2013-03-07 00:52:00,
2013-03-06 19:57:00,37.6,35.2,29.90,NNE,15,8.0,28.0,91,0.00,,,0.06,VWS V14.01,2013-03-07 00:57:00,
2013-03-06 20:00:00,37.4,34.7,29.88,NE,46,5.0,24.0,90,0.00,,,0.06,VWS V14.01,2013-03-07 01:00:00,
2013-03-06 20:02:00,37.6,35.2,29.90,NE,55,5.0,8.0,91,0.00,,,0.06,VWS V14.01,2013-03-07 01:02:00,
2013-03-06 20:07:00,37.6,34.9,29.90,NE,43,7.0,18.0,90,0.00,,,0.06,VWS V14.01,2013-03-07 01:07:00,
2013-03-06 20:12:00,37.5,34.8,29.89,NE,34,5.0,19.0,90,0.00,,,0.06,VWS V14.01,2013-03-07 01:12:00,
2013-03-06 20:17:00,37.6,34.9,29.90,ENE,78,8.0,26.0,90,0.00,,,0.06,VWS V14.01,2013-03-07 01:17:00,
2013-03-06 20:22:00,37.6,34.9,29.89,East,96,7.0,26.0,90,0.00,,,0.06,VWS V14.01,2013-03-07 01:22:00,
2013-03-06 20:27:00,37.6,34.9,29.89,NNW,346,4.0,26.0,90,0.00,,,0.06,VWS V14.01,2013-03-07 01:27:00,
2013-03-06 20:30:00,37.4,34.7,29.87,NNE,32,9.0,20.0,90,0.00,,,0.06,VWS V14.01,2013-03-07 01:30:00,
2013-03-06 20:32:00,37.6,34.9,29.88,ENE,57,10.0,11.0,90,0.00,,,0.06,VWS V14.01,2013-03-07 01:32:00,
2013-03-06 20:37:00,37.6,34.9,29.88,NNE,30,8.0,24.0,90,0.00,,,0.06,VWS V14.01,2013-03-07 01:37:00,
2013-03-06 20:42:00,37.6,34.9,29.88,NE,51,11.0,24.0,90,0.00,,,0.06,VWS V14.01,2013-03-07 01:42:00,
2013-03-06 20:47:00,37.5,34.8,29.87,North,5,6.0,24.0,90,0.00,,,0.06,VWS V14.01,2013-03-07 01:47:00,
2013-03-06 20:52:00,37.5,34.8,29.87,NE,55,8.0,24.0,90,0.00,,,0.06,VWS V14.01,2013-03-07 01:52:00,
2013-03-06 20:57:00,37.4,34.7,29.87,NE,48,7.0,24.0,90,0.00,,,0.06,VWS V14.01,2013-03-07 01:57:00,
2013-03-06 21:00:00,37.3,34.6,29.88,NE,53,7.0,23.0,90,0.00,,,0.06,VWS V14.01,2013-03-07 02:00:00,
2013-03-06 21:02:00,37.4,34.7,29.87,NNE,25,11.0,11.0,90,0.00,,,0.06,VWS V14.01,2013-03-07 02:02:00,
2013-03-06 21:07:00,37.4,34.7,29.88,ENE,72,5.0,15.0,90,0.00,,,0.06,VWS V14.01,2013-03-07 02:07:00,
2013-03-06 21:12:00,37.3,34.6,29.88,NE,46,8.0,15.0,90,0.00,,,0.06,VWS V14.01,2013-03-07 02:12:00,
2013-03-06 21:17:00,37.3,34.6,29.87,NE,34,15.0,15.0,90,0.00,,,0.06,VWS V14.01,2013-03-07 02:17:00,
2013-03-06 21:22:00,37.4,34.7,29.88,NNE,27,8.0,20.0,90,0.00,,,0.06,VWS V14.01,2013-03-07 02:22:00,
2013-03-06 21:27:00,37.4,34.7,29.88,East,94,15.0,20.0,90,0.00,,,0.06,VWS V14.01,2013-03-07 02:27:00,
2013-03-06 21:30:00,37.1,34.7,29.87,NE,49,7.0,19.0,91,0.00,,,0.06,VWS V14.01,2013-03-07 02:30:00,
2013-03-06 21:32:00,37.4,34.7,29.88,NNE,22,8.0,10.0,90,0.00,,,0.06,VWS V14.01,2013-03-07 02:32:00,
2013-03-06 21:37:00,37.5,34.6,29.88,North,5,6.0,23.0,89,0.00,,,0.06,VWS V14.01,2013-03-07 02:37:00,
2013-03-06 21:42:00,37.6,34.7,29.87,NNE,21,7.0,23.0,89,0.00,,,0.06,VWS V14.01,2013-03-07 02:42:00,
2013-03-06 21:47:00,37.5,34.6,29.87,NNE,27,7.0,23.0,89,0.00,,,0.06,VWS V14.01,2013-03-07 02:47:00,
2013-03-06 21:52:00,37.5,34.6,29.87,NNW,347,5.0,23.0,89,0.00,,,0.06,VWS V14.01,2013-03-07 02:52:00,
2013-03-06 21:57:00,37.4,34.7,29.87,NNW,333,5.0,23.0,90,0.00,,,0.06,VWS V14.01,2013-03-07 02:57:00,
2013-03-06 22:00:00,36.9,34.5,29.88,SE,146,4.0,18.0,91,0.00,,,0.06,VWS V14.01,2013-03-07 03:00:00,
2013-03-06 22:02:00,37.3,34.6,29.87,ENE,71,10.0,10.0,90,0.00,,,0.06,VWS V14.01,2013-03-07 03:02:00,
2013-03-06 22:07:00,37.2,34.5,29.88,NE,40,5.0,17.0,90,0.00,,,0.06,VWS V14.01,2013-03-07 03:07:00,
2013-03-06 22:12:00,37.1,34.4,29.88,ENE,59,5.0,17.0,90,0.00,,,0.06,VWS V14.01,2013-03-07 03:12:00,
2013-03-06 22:17:00,37.1,34.7,29.88,ESE,106,7.0,17.0,91,0.00,,,0.06,VWS V14.01,2013-03-07 03:17:00,
2013-03-06 22:22:00,37.1,34.7,29.87,NW,325,8.0,19.0,91,0.00,,,0.06,VWS V14.01,2013-03-07 03:22:00,
2013-03-06 22:27:00,37.0,34.6,29.87,NE,34,12.0,19.0,91,0.00,,,0.06,VWS V14.01,2013-03-07 03:27:00,
2013-03-06 22:30:00,36.7,34.6,29.86,NE,49,9.0,30.0,92,0.00,,,0.06,VWS V14.01,2013-03-07 03:30:00,
2013-03-06 22:32:00,37.0,34.6,29.87,NE,54,6.0,7.0,91,0.00,,,0.06,VWS V14.01,2013-03-07 03:32:00,
2013-03-06 22:37:00,37.0,34.6,29.88,NE,56,4.0,15.0,91,0.00,,,0.06,VWS V14.01,2013-03-07 03:37:00,
2013-03-06 22:42:00,37.0,34.6,29.88,NE,36,8.0,16.0,91,0.00,,,0.06,VWS V14.01,2013-03-07 03:42:00,
2013-03-06 22:47:00,37.0,34.6,29.88,ENE,74,10.0,16.0,91,0.00,,,0.06,VWS V14.01,2013-03-07 03:47:00,
2013-03-06 22:52:00,36.9,34.5,29.89,North,5,6.0,17.0,91,0.00,,,0.06,VWS V14.01,2013-03-07 03:52:00,
2013-03-06 22:57:00,37.0,34.6,29.88,NE,36,5.0,18.0,91,0.00,,,0.06,VWS V14.01,2013-03-07 03:57:00,
2013-03-06 23:00:00,36.9,34.5,29.86,ENE,57,2.0,23.0,91,0.00,,,0.06,VWS V14.01,2013-03-07 04:00:00,
2013-03-06 23:02:00,36.9,34.5,29.88,NNE,22,9.0,11.0,91,0.00,,,0.06,VWS V14.01,2013-03-07 04:02:00,
2013-03-06 23:07:00,36.8,34.4,29.87,North,9,5.0,30.0,91,0.00,,,0.06,VWS V14.01,2013-03-07 04:07:00,
2013-03-06 23:12:00,36.8,34.7,29.87,NNW,334,7.0,30.0,92,0.00,,,0.06,VWS V14.01,2013-03-07 04:12:00,
2013-03-06 23:17:00,36.8,34.7,29.87,ENE,73,7.0,30.0,92,0.00,,,0.06,VWS V14.01,2013-03-07 04:17:00,
2013-03-06 23:22:00,36.7,34.6,29.87,NNW,330,6.0,30.0,92,0.00,,,0.06,VWS V14.01,2013-03-07 04:22:00,
2013-03-06 23:27:00,36.7,34.6,29.87,NNE,19,5.0,30.0,92,0.00,,,0.06,VWS V14.01,2013-03-07 04:27:00,
2013-03-06 23:30:00,36.8,34.4,29.85,NNE,24,3.0,21.0,91,0.00,,,0.00,VWS V14.01,2013-03-07 04:30:00,
2013-03-06 23:32:00,36.7,34.6,29.87,North,360,17.0,17.0,92,0.00,,,0.06,VWS V14.01,2013-03-07 04:32:00,
2013-03-06 23:37:00,36.7,34.3,29.87,NNE,30,12.0,17.0,91,0.00,,,0.06,VWS V14.01,2013-03-07 04:37:00,
2013-03-06 23:42:00,36.8,34.4,29.87,NNW,348,11.0,23.0,91,0.00,,,0.06,VWS V14.01,2013-03-07 04:42:00,
2013-03-06 23:47:00,36.8,34.4,29.87,North,5,6.0,23.0,91,0.00,,,0.06,VWS V14.01,2013-03-07 04:47:00,
2013-03-06 23:52:00,36.9,34.5,29.87,NW,323,8.0,23.0,91,0.00,,,0.06,VWS V14.01,2013-03-07 04:52:00,
2013-03-06 23:57:00,36.9,34.5,29.87,NNW,338,23.0,23.0,91,0.00,,,0.06,VWS V14.01,2013-03-07 04:57:00,